Location: Hilton Head Island
(32.2163°N, 80.7526°W)
Time: 13:36:30
(UTC-04:00)

Transit 2A Rocket - Pass Details

Date: 12 February 2026
Orbit: 583 x 900 km, 66.7° (Epoch: 12 March)

Event Time Altitude Azimuth Distance (km) Brightness Sun altitude
Rises 16:23:27 0° 182° (S) 3,394 8.8 19.2°
Reaches altitude 10° 16:26:02 10° 173° (S) 2,497 8.0 18.8°
Maximum altitude 16:31:20 37° 108° (ESE) 1,360 6.2 17.8°
Drops below altitude 10° 16:36:47 10° 44° (NE) 2,576 7.2 16.8°
Sets 16:39:28 0° 36° (NE) 3,516 7.9 16.3°
